Regional Weather Roundup
Issued by NWS

Home | Current Version | Previous Version | Graphics & Text | Print | Product List | Glossary Off
Versions: 1 2 3 4 5 6 7 8 9 10 11 12 13 14 15 16 17 18 19 20 21 22 23 24 25 26 27 28 29 30 31 32 33 34 35 36 37 38 39 40 41 42 43 44 45 46 47 48 49 50

000
ASUS43 KMKX 072021
RWRWI

WISCONSIN REGIONAL WEATHER ROUNDUP
NATIONAL WEATHER SERVICE MILWAUKEE/SULLIVAN WI
200 PM CST SUN FEB 07 2016

NOTE: "FAIR" INDICATES FEW OR NO CLOUDS BELOW 12,000 FEET WITH NO
SIGNIFICANT WEATHER AND/OR OBSTRUCTIONS TO VISIBILITY.

WIZ001-002-006>008-014>016-023>028-072100-
NORTHWEST WISCONSIN

CITY           SKY/WX    TMP DP  RH WIND       PRES   REMARKS
SUPERIOR ARPT  DRIZZLE   35  33  91 SW12G17   29.48S WCI  27
ASHLAND        CLOUDY    37  33  85 SW10G21   29.48R WCI  30
HAYWARD        LGT SNOW  35  30  82 SW8       29.50S WCI  29
SIREN          FLURRIES  35  32  90 W10       29.54S WCI  27
CUMBERLAND     CLOUDY    36  27  69 W12       29.53F WCI  27
RICE LAKE      CLOUDY    38  27  64 W13G22    29.55F WCI  30
CHETEK         CLOUDY    38  27  64 W12       29.55S WCI  31
LADYSMITH      CLOUDY    38  29  67 W13G18    29.53F WCI  31
EAU CLAIRE     CLOUDY    39  25  57 W15G22    29.57F WCI  31
MENOMONIE      CLOUDY    42  26  53 W13G20    29.59S
NEW RICHMOND   CLOUDY    39  26  59 W20G25    29.57S WCI  29
OSCEOLA        CLOUDY    39  28  63 W16       29.59F WCI  31
$$

WIZ003>005-009-010-017-018-072100-
NORTH CENTRAL WISCONSIN

CITY           SKY/WX    TMP DP  RH WIND       PRES   REMARKS
MANITOWISH WTR LGT SNOW  33  32  98 SW7       29.46S WCI  26
ARBOR VITAE    CLOUDY    34  32  92 SW7       29.48S FOG     WCI  28
WOODRUFF       CLOUDY    34  32  92 SW7       29.48S FOG     WCI  28
RHINELANDER    CLOUDY    33  30  88 SW8       29.50S WCI  26
EAGLE RIVER    MIX PCPN  32  32  99 SW6       29.48S WCI  26
LAND O LAKES   MIX PCPN  33  32  96 SW5       29.48S WCI  28
PHILLIPS       FLURRIES  34  31  90 SW9       29.49S WCI  26
TOMAHAWK       CLOUDY    34  29  83 W8        29.51F WCI  27
MEDFORD        CLOUDY    36  29  76 W9        29.52S WCI  29
MERRILL        CLOUDY    36  30  79 W10       29.53F WCI  28
$$

WIZ029-030-035-036-043>047-072100-
CENTRAL WISCONSIN

CITY           SKY/WX    TMP DP  RH WIND       PRES   REMARKS
WAUSAU         CLOUDY    39  28  64 W14G23    29.52F WCI  31
MOSINEE        PTSUNNY   37  30  75 SW18      29.55F WCI  27
MARSHFIELD     CLOUDY    39  26  59 W15G22    29.55F WCI  31
STEVENS POINT  CLOUDY    37  27  67 W9G17     29.57S WCI  30
WAUPACA        CLOUDY    42  29  61 W13       29.59S
WAUTOMA        MOSUNNY   42  28  58 W15       29.60S
WISC RAPIDS    CLOUDY    40  26  57 W16       29.59F WCI  31
CAMP DOUGLAS   MOSUNNY   41  30  65 W15       29.60F
$$

WIZ011>013-019>022-031-037>040-048>050-072100-
NORTHEAST WISCONSIN

CITY           SKY/WX    TMP DP  RH WIND       PRES   REMARKS
ANTIGO         CLOUDY    34  29  82 W12G20    29.52S WCI  26
SHAWANO        CLOUDY    41  31  66 W13       29.57S
OCONTO         CLOUDY    40  31  71 W9        29.56S WCI  33
STURGEON BAY   CLOUDY    39  28  65 SW10      29.60R WCI  32
GREEN BAY      CLOUDY    40  30  67 SW10G20   29.58S WCI  33
MANITOWOC      SUNNY     42  30  62 SW16G22   29.61R
APPLETON       PTSUNNY   39  28  65 SW8       29.57S WCI  34
CLINTONVILLE   CLOUDY    39  30  70 W14       29.57S WCI  31
OSHKOSH        CLOUDY    40  29  64 SW8       29.60S WCI  34
$$

WIZ032>034-041-042-053>061-072100-
SOUTHWEST WISCONSIN

CITY           SKY/WX    TMP DP  RH WIND       PRES   REMARKS
LA CROSSE      MOSUNNY   41  25  53 W20G25    29.65S
SPARTA         SUNNY     41  27  57 SW13G22   29.63S
VIROQUA        MOSUNNY   37  26  64 W20       29.64S WCI  27
BOSCOBEL       MOSUNNY   42  26  53 W13G22    29.69F
PRAIRIE DU CHI MOSUNNY   40  25  55 W13G18    29.71F WCI  32
PLATTEVILLE    MOSUNNY   39  28  63 W20       29.70F WCI  30
$$

WIZ056-057-062-063-064-067-068-072100-
SOUTH CENTRAL WISCONSIN

CITY           SKY/WX    TMP DP  RH WIND       PRES   REMARKS
REEDSBURG      SUNNY     40  28  62 W13       29.62F WCI  33
BARABOO/DELLS  SUNNY     41  27  57 W15G21    29.62S
LONE ROCK      MOSUNNY   40  27  59 W13       29.67S WCI  32
MINERAL POINT  MOSUNNY   41  28  60 W16G24    29.67F
MADISON        MOSUNNY   41  29  62 W8        29.64F
MIDDLETON      SUNNY     43  29  58 SW14G20   29.64F
WATERTOWN      SUNNY     42  31  65 SW10      29.64S
MONROE         SUNNY     41  30  65 W24G30    29.68S
JANESVILLE     SUNNY     45  30  57 W20G25    29.68S
$$

WIZ051-052-058>065-066-070>072-072100-
SOUTHEAST WISCONSIN

CITY           SKY/WX    TMP DP  RH WIND       PRES   REMARKS
MILWAUKEE      CLOUDY    44  31  60 SW15      29.65F
WAUKESHA       SUNNY     41  30  65 SW13G22   29.65F
MILWAUKEE/TIMM SUNNY     43  28  56 SW17      29.64F
RACINE         MOSUNNY   42  31  64 SW15      29.67F
BURLINGTON     SUNNY     41  31  68 SW14      29.68R
KENOSHA        CLOUDY    41  31  67 SW13G23   29.67F
FOND DU LAC    PTSUNNY   40  30  67 SW9       29.61S WCI  34
SHEBOYGAN      SUNNY     41  30  65 SW15      29.61S
WEST BEND      SUNNY     41  30  65 SW12G21   29.62S
JUNEAU         SUNNY     40  30  68 SW14      29.64S WCI  32
$$

LSZ147-162-072100-
LAKE SUPERIOR

STATION/POSITION TIME  TEMP    WIND        PRES    WAVE
                       AIR SEA DIR/SP/G            HT/PER
                 (UTC) (F)     (DEG/KT/KT) (MB)    (FT/S)
DEVILS ISLAND    2000   35     240/ 19/ 22  997.7S
PORT WING        1900   37     230/  8/ 14  998.3F
SAXON HARBOR     1940   37                  998.0F
$$

LMZ867-665-643>646-072100-
LAKE MICHIGAN

STATION/POSITION TIME  TEMP    WIND        PRES    WAVE
                       AIR SEA DIR/SP/G            HT/PER
                 (UTC) (F)     (DEG/KT/KT) (MB)    (FT/S)
CHAMBERS ISLAND  1900   39     190/  8/ 13 1001.4F
NORTHPORT PIER   1900   43     200/  5/ 15 1001.4F
ALGOMA LAKESHORE 1811          230/ 13/ 18   N/A
KEWAUNEE LAKESHO 1900   41     230/  8/ 11 1001.4F
SHEBOYGAN LAKESH 2000   42     220/ 14/ 16 1003.5R
PORT WASHINGTON  1900   44     260/ 10/ 15 1004.4F
MILWAUKEE LAKESH 1910   42     240/ 12/ 14   N/A
KENOSHA   LAKESH 2000   41     220/ 13/ 19 1005.1F
$$

TC  - TEMPERATURE IN CELSIUS
VSB - VISIBILITY IN STATUTE MILES
WCI - WIND CHILL INDEX
HX  - HEAT INDEX




USA.gov is the U.S. government's official web portal to all federal, state and local government web resources and services.